Weather History for Carbondale, IL

Change the Weather History Date:

Monday, February 4, 2013

  Actual Average Record
Temperature  
Mean Temperature 39 °F -  
Max Temperature 48 °F 43 °F 73 °F (1962)
Min Temperature 30 °F 19 °F -7 °F (1912)
Degree Days  
Heating Degree Days 26    
Moisture  
Dew Point 31 °F    
Average Humidity 70    
Maximum Humidity 89    
Minimum Humidity 44    
Precipitation  
Precipitation 0.01 in - - ()
Sea Level Pressure  
Sea Level Pressure 29.92 in    
Wind  
Wind Speed 9 mph (SW)    
Max Wind Speed 20 mph    
Max Gust Speed 26 mph    
Visibility 10 miles    
Events Rain    
Averages and records for this station are not official NWS values.
T = Trace of Precipitation, MM = Missing Value Source: NWS Daily Summary

Daily Weather History Graph

Daily Weather History Graph

Search for Another Location

Airport:

Trip Planner

Search our weather history database for the weather conditions in past years. The results will help you decide how hot, cold, wet, or windy it might be!

Date:

Astronomy

Feb. 04, 2013 Rise Set
Actual Time 6:58 AM CST 5:24 PM CST
Civil Twilight 6:30 AM CST 5:51 PM CST
Nautical Twilight 5:59 AM CST 6:23 PM CST
Astronomical Twilight 5:28 AM CST 6:53 PM CST
Moon 1:32 AM CST (2/4) 11:49 AM CST (2/4)
Length of Visible Light 11h 21m
Length of Day
10h 26m
Last Quarter, 37% of the Moon is Illuminated
Feb 4
Last Quarter
Feb 10
New
Feb 17
First Quarter
Feb 25
Full
Mar 4
Last Quarter

Hourly Weather History & Observations

Time (CST) Temp. Windchill Dew Point Humidity Pressure Visibility Wind Dir Wind Speed Gust Speed Precip Events Conditions
12:52 AM 30.0 °F 24.1 °F 19.9 °F 66% 30.06 in 10.0 mi SE 5.8 mph - N/A   Clear
1:52 AM 30.9 °F 24.3 °F 21.0 °F 67% 30.04 in 10.0 mi SSE 6.9 mph - N/A   Clear
2:52 AM 33.1 °F 26.9 °F 21.9 °F 64% 30.02 in 10.0 mi South 6.9 mph - N/A   Clear
5:52 AM 36.0 °F 29.0 °F 24.1 °F 62% 29.95 in 10.0 mi South 9.2 mph - N/A   Overcast
6:52 AM 36.0 °F 33.3 °F 24.1 °F 62% 29.94 in 10.0 mi South 3.5 mph - N/A   Overcast
7:52 AM 39.0 °F 31.4 °F 25.0 °F 57% 29.92 in 10.0 mi South 12.7 mph - N/A   Overcast
8:52 AM 43.0 °F 34.5 °F 25.0 °F 49% 29.91 in 10.0 mi SSW 19.6 mph - N/A   Overcast
9:52 AM 46.0 °F 38.5 °F 25.0 °F 44% 29.91 in 10.0 mi SW 19.6 mph 26.5 mph N/A   Overcast
10:52 AM 44.1 °F 37.1 °F 30.0 °F 58% 29.94 in 10.0 mi SW 15.0 mph - 0.00 in Rain Light Rain
11:52 AM 44.1 °F 36.2 °F 33.1 °F 65% 29.89 in 10.0 mi SSW 18.4 mph 25.3 mph 0.01 in   Overcast
12:52 PM 46.9 °F - 36.0 °F 66% 29.87 in 10.0 mi SSW 13.8 mph 25.3 mph N/A   Overcast
1:52 PM 46.9 °F - 37.0 °F 68% 29.86 in 10.0 mi SW 16.1 mph - N/A   Overcast
2:52 PM 46.9 °F - 37.9 °F 71% 29.85 in 10.0 mi SW 12.7 mph 26.5 mph 0.00 in   Overcast
3:52 PM 48.0 °F - 39.0 °F 71% 29.84 in 10.0 mi SSW 13.8 mph - N/A   Scattered Clouds
4:52 PM 46.9 °F - 39.0 °F 74% 29.83 in 10.0 mi SSW 10.4 mph - N/A   Clear
5:52 PM 43.0 °F 37.7 °F 37.0 °F 80% 29.85 in 10.0 mi South 9.2 mph - N/A   Clear
6:52 PM 39.9 °F 35.1 °F 36.0 °F 86% 29.89 in 10.0 mi SSW 6.9 mph - N/A   Clear
7:45 PM 39.2 °F 35.9 °F 35.6 °F 87% 29.90 in 10.0 mi WSW 4.6 mph - N/A   Mostly Cloudy
7:52 PM 39.0 °F 36.8 °F 36.0 °F 89% 29.91 in 10.0 mi West 3.5 mph - N/A   Mostly Cloudy
8:20 PM 42.8 °F 40.1 °F 37.4 °F 81% 29.91 in 10.0 mi West 4.6 mph - N/A   Scattered Clouds
8:33 PM 41.0 °F 38.0 °F 37.4 °F 87% 29.91 in 10.0 mi West 4.6 mph - N/A   Scattered Clouds
8:52 PM 42.1 °F 38.4 °F 37.0 °F 82% 29.93 in 10.0 mi West 5.8 mph - N/A   Partly Cloudy
9:52 PM 39.0 °F 33.4 °F 30.0 °F 70% 29.95 in 10.0 mi NNW 8.1 mph - N/A   Clear
10:52 PM 36.0 °F 31.1 °F 28.0 °F 73% 29.96 in 10.0 mi NNW 5.8 mph - N/A   Clear